Погода в Пеньисколе

Испания     40°21′35″N   0°24′07″E
темп.,
°C
ветер,
м/с
пор.,
м/с
влажн.,
%
обл.,
%
осадки,
мм/ч
давл.,
гПа
погр.,
м
21 апреля, ср
ср2123:00+14с3482100 0.3 1013265
02:00+14с5681100 0.3 1013345
05:00+14ссз458391 2.6 1013363
08:00+14ссв8885100 2.8 1012491
11:00+14св6687100 0.4 1014509
14:00+14всв558867 0.8 1014415
17:00+14всв668497 0.0 1013448
20:00+14св6685100 0.0 1013528
22 апреля, чт
чт2223:00+14всв4486100 0.8 1015396
02:00+14всв6691100 4.7 1014419
05:00+14всв7792100 3.6 1013453
08:00+14юв3491100 8.8 1014317
11:00+14вюв5693100 7.4 1015448
14:00+14в8994100 18.4 1015558
17:00+14всв101191100 6.1 1015641
20:00+14св8990100 11.2 1017619
23 апреля, пт
пт2323:00+14ссв668299 0.8 1019641
02:00+14ссв668165 0.9 1019426
05:00+14ссв6680100 0.0 1019523
08:00+14св567767 0.0 1019598
11:00+14св44745 0.0 1021545
14:00+15всв347294 0.0 1021470
17:00+15всв4470100 0.0 1020403
20:00+15св2372100 0.0 1020336
24 апреля, сб
сб2423:00+15всв2276100 0.0 1021266
02:00+14св3379100 0.0 1021329
05:00+14ссв438181 0.0 1020375
08:00+14ссв4482100 0.0 1020432
11:00+15св3279100 0.0 1021426
14:00+15всв448161 0.0 1020410
17:00+15в3379100 0.0 1019385
20:00+15св4481100 0.0 1018372
25 апреля, вс
вс2523:00+15ссв55835 0.0 1019269
02:00+15ссв5585100 0.0 1018313
05:00+15ссв7885100 0.0 1016447
08:00+15св81083100 0.0 1015547
11:00+15св8108336 0.0 1015594
14:00+15св89854 0.0 1014468
17:00+15св898843 0.0 1012399
20:00+15св899021 0.0 1011364